When you browse on this site, cookies collect data to enhance your experience and personalize the content and advertising you see.
Visit our Privacy Policy to learn more. By continuing to use the site, you agree to this use of cookies and data.
  • In Latvia
  • List of Countries
  • For 7 days
  • Water Temperature
  • Satellite Maps
  • Weather Map
  • Weather Widgets
  • user-avatar
    Login

    Hourly Weather Grenchen

    Today, 15 July, Monday

    Time Temperature Precipitation Wind Pressure Humidity
    00:00 +13°C° 0 mm 1 mps 718 mmHg 96%
    01:00 +13°C° 0.1 mm 1 mps 717 mmHg 96%
    02:00 +13°C° 0.1 mm 2 mps 717 mmHg 97%
    03:00 +13°C° 0.1 mm 2 mps 717 mmHg 97%
    04:00 +13°C° 0 mm 2 mps 717 mmHg 97%
    05:00 +13°C° 0 mm 2 mps 718 mmHg 96%
    06:00 +13°C° 0 mm 2 mps 718 mmHg 97%
    07:00 +14°C° 0 mm 2 mps 718 mmHg 93%
    08:00 +14°C° 0 mm 3 mps 718 mmHg 89%
    09:00 +16°C° 0 mm 3 mps 718 mmHg 84%
    10:00 +17°C° 0.1 mm 3 mps 718 mmHg 80%
    11:00 +18°C° 0.1 mm 3 mps 718 mmHg 76%
    12:00 +19°C° 0 mm 3 mps 718 mmHg 70%
    13:00 +20°C° 0 mm 3 mps 718 mmHg 67%
    14:00 +21°C° 0 mm 3 mps 718 mmHg 65%
    15:00 +22°C° 0 mm 3 mps 718 mmHg 62%
    16:00 +21°C° 0.1 mm 3 mps 718 mmHg 68%
    17:00 +20°C° 0.1 mm 2 mps 718 mmHg 75%
    18:00 +19°C° 0.1 mm 2 mps 719 mmHg 81%
    19:00 +18°C° 0 mm 2 mps 719 mmHg 85%
    20:00 +16°C° 0 mm 1 mps 719 mmHg 90%
    21:00 +15°C° 0 mm 1 mps 719 mmHg 94%
    22:00 +14°C° 0 mm 1 mps 719 mmHg 94%
    23:00 +14°C° 0 mm 1 mps 719 mmHg 95%

    Tomorrow, 16 July, Tuesday

    Time Temperature Precipitation Wind Pressure Humidity
    00:00 +13°C° 0 mm 1 mps 719 mmHg 95%
    01:00 +13°C° 0 mm 1 mps 719 mmHg 95%
    02:00 +13°C° 0 mm 1 mps 719 mmHg 95%
    03:00 +11°C° 0 mm 0 mps 719 mmHg 96%
    04:00 +12°C° 0 mm 0 mps 719 mmHg 94%
    05:00 +14°C° 0 mm 1 mps 719 mmHg 93%
    06:00 +15°C° 0 mm 1 mps 719 mmHg 91%
    07:00 +18°C° 0 mm 1 mps 720 mmHg 81%
    08:00 +21°C° 0 mm 1 mps 720 mmHg 71%
    09:00 +23°C° 0 mm 2 mps 720 mmHg 61%
    10:00 +24°C° 0 mm 2 mps 720 mmHg 55%
    11:00 +25°C° 0 mm 2 mps 720 mmHg 50%
    12:00 +26°C° 0 mm 2 mps 720 mmHg 45%
    13:00 +26°C° 0 mm 2 mps 720 mmHg 44%
    14:00 +26°C° 0 mm 2 mps 720 mmHg 44%
    15:00 +26°C° 0 mm 2 mps 720 mmHg 44%
    16:00 +25°C° 0 mm 2 mps 719 mmHg 52%
    17:00 +24°C° 0 mm 1 mps 719 mmHg 59%
    18:00 +22°C° 0 mm 1 mps 719 mmHg 66%
    19:00 +20°C° 0 mm 1 mps 719 mmHg 72%
    20:00 +19°C° 0 mm 1 mps 719 mmHg 78%
    21:00 +15°C° 0 mm 0 mps 719 mmHg 84%
    22:00 +14°C° 0 mm 0 mps 719 mmHg 85%
    23:00 +14°C° 0 mm 0 mps 719 mmHg 87%

    Day after tomorrow, 17 July, Wednesday

    Time Temperature Precipitation Wind Pressure Humidity
    00:00 +14°C° 0 mm 0 mps 719 mmHg 88%
    01:00 +13°C° 0 mm 0 mps 719 mmHg 89%
    02:00 +13°C° 0 mm 0 mps 718 mmHg 89%
    03:00 +13°C° 0 mm 0 mps 718 mmHg 90%
    04:00 +14°C° 0 mm 0 mps 718 mmHg 87%
    05:00 +15°C° 0 mm 0 mps 718 mmHg 83%
    06:00 +16°C° 0 mm 0 mps 718 mmHg 80%
    07:00 +18°C° 0 mm 0 mps 718 mmHg 71%
    08:00 +23°C° 0 mm 1 mps 718 mmHg 63%
    09:00 +25°C° 0 mm 1 mps 719 mmHg 55%
    10:00 +26°C° 0 mm 1 mps 718 mmHg 51%
    11:00 +26°C° 0 mm 2 mps 718 mmHg 48%
    12:00 +27°C° 0 mm 2 mps 718 mmHg 45%
    13:00 +27°C° 0 mm 2 mps 718 mmHg 45%
    14:00 +27°C° 0 mm 2 mps 718 mmHg 46%
    15:00 +26°C° 0 mm 3 mps 718 mmHg 46%
    16:00 +25°C° 0 mm 2 mps 718 mmHg 55%
    17:00 +24°C° 0 mm 2 mps 717 mmHg 62%
    18:00 +23°C° 0 mm 1 mps 717 mmHg 69%
    19:00 +21°C° 0 mm 1 mps 717 mmHg 73%
    20:00 +19°C° 0 mm 1 mps 717 mmHg 77%
    21:00 +16°C° 0 mm 1 mps 717 mmHg 80%
    22:00 +16°C° 0 mm 1 mps 717 mmHg 80%
    23:00 +16°C° 0 mm 1 mps 717 mmHg 79%

    18 July, Thursday

    Time Temperature Precipitation Wind Pressure Humidity
    00:00 +16°C° 0 mm 1 mps 717 mmHg 78%
    01:00 +15°C° 0 mm 1 mps 717 mmHg 79%
    02:00 +15°C° 0 mm 1 mps 717 mmHg 81%
    03:00 +15°C° 0 mm 1 mps 717 mmHg 82%
    04:00 +16°C° 0 mm 1 mps 717 mmHg 80%
    05:00 +18°C° 0 mm 1 mps 717 mmHg 78%
    06:00 +19°C° 0 mm 1 mps 717 mmHg 76%
    07:00 +21°C° 0 mm 1 mps 717 mmHg 68%
    08:00 +23°C° 0 mm 1 mps 718 mmHg 60%
    09:00 +24°C° 0 mm 1 mps 718 mmHg 51%
    10:00 +25°C° 0 mm 2 mps 718 mmHg 49%
    11:00 +25°C° 0 mm 2 mps 717 mmHg 48%
    12:00 +26°C° 0 mm 2 mps 717 mmHg 46%
    13:00 +26°C° 0 mm 2 mps 717 mmHg 46%
    14:00 +26°C° 0 mm 3 mps 717 mmHg 47%
    15:00 +26°C° 0 mm 3 mps 717 mmHg 47%
    16:00 +25°C° 0 mm 2 mps 717 mmHg 55%
    17:00 +23°C° 0 mm 1 mps 717 mmHg 62%
    18:00 +22°C° 0 mm 1 mps 718 mmHg 70%
    19:00 +21°C° 0 mm 1 mps 718 mmHg 73%
    20:00 +19°C° 0 mm 1 mps 718 mmHg 77%
    21:00 +16°C° 0 mm 1 mps 718 mmHg 80%
    22:00 +16°C° 0 mm 1 mps 718 mmHg 80%
    23:00 +16°C° 0 mm 1 mps 718 mmHg 80%

    19 July, Friday

    Time Temperature Precipitation Wind Pressure Humidity
    00:00 +16°C° 0 mm 1 mps 718 mmHg 80%
    01:00 +15°C° 0 mm 1 mps 718 mmHg 81%
    02:00 +15°C° 0 mm 1 mps 718 mmHg 82%
    03:00 +15°C° 0 mm 1 mps 718 mmHg 83%
    04:00 +16°C° 0 mm 1 mps 718 mmHg 81%
    05:00 +18°C° 0 mm 1 mps 718 mmHg 78%
    06:00 +19°C° 0 mm 1 mps 719 mmHg 76%
    07:00 +21°C° 0.1 mm 1 mps 719 mmHg 71%
    08:00 +23°C° 0.1 mm 1 mps 719 mmHg 65%
    09:00 +25°C° 0.1 mm 1 mps 719 mmHg 60%
    10:00 +25°C° 0.1 mm 1 mps 719 mmHg 59%
    11:00 +25°C° 0.1 mm 1 mps 719 mmHg 58%
    12:00 +26°C° 0.1 mm 1 mps 719 mmHg 57%
    13:00 +26°C° 0.1 mm 2 mps 719 mmHg 57%
    14:00 +26°C° 0.1 mm 2 mps 719 mmHg 57%
    15:00 +26°C° 0.1 mm 2 mps 719 mmHg 57%
    16:00 +25°C° 0.1 mm 1 mps 719 mmHg 64%
    17:00 +24°C° 0.1 mm 1 mps 719 mmHg 70%
    18:00 +23°C° 0.1 mm 1 mps 719 mmHg 77%
    19:00 +22°C° 0 mm 1 mps 719 mmHg 81%
    20:00 +20°C° 0 mm 1 mps 720 mmHg 86%
    21:00 +16°C° 0 mm 0 mps 720 mmHg 90%
    22:00 +16°C° 0 mm 0 mps 720 mmHg 91%
    23:00 +16°C° 0 mm 0 mps 720 mmHg 91%

    20 July, Saturday

    Time Temperature Precipitation Wind Pressure Humidity
    00:00 +15°C° 0 mm 0 mps 720 mmHg 91%
    01:00 +15°C° 0 mm 0 mps 720 mmHg 92%
    02:00 +15°C° 0 mm 0 mps 719 mmHg 92%
    03:00 +14°C° 0 mm 0 mps 719 mmHg 93%
    04:00 +15°C° 0 mm 0 mps 719 mmHg 90%
    05:00 +16°C° 0 mm 0 mps 720 mmHg 88%
    06:00 +18°C° 0 mm 0 mps 720 mmHg 86%
    07:00 +22°C° 0 mm 1 mps 720 mmHg 76%
    08:00 +25°C° 0 mm 1 mps 720 mmHg 66%
    09:00 +27°C° 0 mm 1 mps 721 mmHg 56%
    10:00 +28°C° 0 mm 1 mps 721 mmHg 52%
    11:00 +29°C° 0 mm 1 mps 721 mmHg 49%
    12:00 +30°C° 0 mm 2 mps 721 mmHg 45%
    13:00 +29°C° 0.3 mm 2 mps 721 mmHg 51%
    14:00 +28°C° 0.3 mm 2 mps 721 mmHg 56%
    15:00 +28°C° 0.3 mm 2 mps 721 mmHg 62%
    16:00 +26°C° 0.4 mm 2 mps 721 mmHg 69%
    17:00 +25°C° 0.4 mm 1 mps 721 mmHg 76%
    18:00 +24°C° 0.4 mm 1 mps 721 mmHg 82%
    19:00 +23°C° 1.1 mm 1 mps 721 mmHg 85%
    20:00 +21°C° 1.1 mm 1 mps 721 mmHg 88%
    21:00 +19°C° 1.1 mm 1 mps 722 mmHg 90%
    22:00 +19°C° 0.3 mm 1 mps 722 mmHg 91%
    23:00 +18°C° 0.3 mm 1 mps 722 mmHg 92%
    Show more